Location: Go�ngahuizen
(53.0821°N, 5.8849°E)
Time: 09:09:02
(UTC+00:00)

Spot 2 Rocket - Pass Details

Date: 09 April 2020
Orbit: 757 x 772 km, 98.6° (Epoch: 01 June)

Event Time Altitude Azimuth Distance (km) Brightness Sun altitude
Exits shadow 20:22:16 21° 161° (SSE) 1,667 4.8 -16.3°
Maximum altitude 20:25:43 88° 72° (ENE) 780 3.5 -16.7°
Drops below altitude 10° 20:30:52 10° 345° (NNW) 2,324 6.8 -17.2°
Sets 20:33:10 0° 345° (NNW) 3,253 7.7 -17.5°
